Slayton, MN

7:12 AM CST on December 11, 2016 (GMT -0600)
Slayton

Weather History for KDVP - May, 2013

Change the Weather History Date:

Friday, May 17, 2013

  Actual Average (KOTG) Record (KOTG)
Temperature  
Mean Temperature 69 °F -  
Max Temperature 79 °F 64 °F 91 °F (1987)
Min Temperature 59 °F 45 °F 32 °F (1973)
Cooling Degree Days 4    
Growing Degree Days 19 (Base 50)    
Moisture  
Dew Point 61 °F    
Average Humidity 83    
Maximum Humidity 100    
Minimum Humidity 47    
Precipitation  
Precipitation 0.33 in - - ()
Sea Level Pressure  
Sea Level Pressure 29.88 in    
Wind  
Wind Speed 9 mph (SE)    
Max Wind Speed 18 mph    
Max Gust Speed 25 mph    
Visibility 8 miles    
Events Rain , Thunderstorm    
Averages and records for this station are not official NWS values.
T = Trace of Precipitation, MM = Missing Value Source: NWS Daily Summary

Daily Weather History Graph

Daily Weather History Graph

Search for Another Location

Airport or City:

Trip Planner

Search our weather history database for the weather conditions in past years. The results will help you decide how hot, cold, wet, or windy it might be!

Date:

Astronomy

May. 17, 2013 Rise Set
Actual Time 5:54 AM CDT 8:45 PM CDT
Civil Twilight 5:21 AM CDT 9:18 PM CDT
Nautical Twilight 4:38 AM CDT 10:01 PM CDT
Astronomical Twilight 3:48 AM CDT 10:51 PM CDT
Moon 12:34 PM CDT (5/17) 1:32 AM CDT (5/17)
Length of Visible Light 15h 57m
Length of Day
14h 50m
Waxing Crescent, 45% of the Moon is Illuminated
May 17
Waxing Crescent
May 17
First Quarter
May 24
Full
May 31
Last Quarter
Jun 8
New

Hourly Weather History & Observations

Time (CDT) Temp. Dew Point Humidity Pressure Visibility Wind Dir Wind Speed Gust Speed Precip Events Conditions
12:13 AM 60.1 °F 58.3 °F 94% 29.90 in 4.0 mi Calm Calm - 0.04 in Rain Heavy Rain
12:33 AM 59.9 °F 59.0 °F 97% 29.90 in 4.0 mi Calm Calm - 0.12 in Rain Rain
12:53 AM 59.9 °F 59.0 °F 97% 29.89 in 4.0 mi SE 8.1 mph - 0.19 in Rain Rain
1:12 AM 59.9 °F 59.2 °F 97% 29.88 in 7.0 mi SE 9.2 mph - 0.01 in Rain Rain
1:33 AM 60.1 °F 59.2 °F 97% 29.89 in 7.0 mi SSE 8.1 mph - 0.02 in Rain Light Rain
1:53 AM 59.9 °F 59.0 °F 97% 29.88 in 10.0 mi ESE 6.9 mph - 0.03 in Rain Light Rain
2:13 AM 60.1 °F 59.0 °F 96% 29.88 in 10.0 mi ESE 3.5 mph - 0.01 in Rain Rain
2:34 AM 59.9 °F 59.0 °F 97% 29.88 in 5.0 mi SE 5.8 mph - 0.03 in Rain Rain
2:53 AM 59.5 °F 59.2 °F 99% 29.87 in 3.0 mi SSE 10.4 mph - 0.06 in Rain Rain
3:12 AM 59.5 °F 59.2 °F 99% 29.87 in 5.0 mi SE 8.1 mph - N/A Rain Light Rain
3:34 AM 59.5 °F 59.2 °F 99% 29.88 in 3.0 mi Calm Calm - 0.03 in Rain Light Rain
3:53 AM 59.9 °F 59.4 °F 98% 29.88 in 5.0 mi ESE 6.9 mph - 0.04 in Rain Light Rain
4:13 AM 59.4 °F 59.0 °F 99% 29.86 in 4.0 mi ESE 11.5 mph - 0.01 in Rain Light Rain
4:34 AM 59.4 °F 59.0 °F 99% 29.87 in 5.0 mi SE 9.2 mph - 0.01 in   Overcast
4:53 AM 59.4 °F 59.0 °F 99% 29.87 in 5.0 mi SE 9.2 mph - 0.01 in   Mostly Cloudy
5:13 AM 59.2 °F 59.0 °F 99% 29.88 in 4.0 mi ESE 9.2 mph - N/A   Scattered Clouds
5:34 AM 59.4 °F 59.0 °F 99% 29.88 in 4.0 mi ESE 10.4 mph - N/A   Mostly Cloudy
5:53 AM 59.4 °F 59.0 °F 99% 29.88 in 3.0 mi SE 8.1 mph - N/A   Overcast
6:13 AM 59.2 °F 59.0 °F 99% 29.88 in 3.0 mi SE 9.2 mph - N/A   Overcast
6:33 AM 59.0 °F 59.0 °F 100% 29.88 in 4.0 mi SE 9.2 mph - N/A   Overcast
7:13 AM 59.9 °F 59.5 °F 99% 29.89 in 7.0 mi SE 12.7 mph - N/A   Scattered Clouds
7:33 AM 60.4 °F 59.9 °F 98% 29.89 in 7.0 mi SSE 13.8 mph - N/A   Scattered Clouds
7:53 AM 61.2 °F 59.9 °F 96% 29.89 in 10.0 mi SSE 15.0 mph - N/A   Mostly Cloudy
8:14 AM 61.9 °F 60.8 °F 96% 29.90 in 10.0 mi SSE 16.1 mph - N/A   Overcast
8:33 AM 62.1 °F 60.8 °F 96% 29.90 in 10.0 mi SE 13.8 mph - N/A   Overcast
8:52 AM 62.6 °F 61.3 °F 96% 29.90 in 10.0 mi SE 13.8 mph - N/A   Overcast
9:13 AM 63.7 °F 62.1 °F 94% 29.90 in 10.0 mi SE 13.8 mph - N/A   Mostly Cloudy
9:34 AM 64.4 °F 62.6 °F 94% 29.90 in 7.0 mi SE 17.3 mph - N/A   Overcast
9:54 AM 64.9 °F 62.8 °F 93% 29.91 in 10.0 mi SE 17.3 mph - N/A   Overcast
10:13 AM 66.4 °F 64.0 °F 92% 29.90 in 10.0 mi SSE 13.8 mph - N/A   Overcast
10:33 AM 68.2 °F 64.8 °F 89% 29.90 in 7.0 mi SE 16.1 mph 23.0 mph N/A   Overcast
10:54 AM 69.6 °F 65.5 °F 87% 29.90 in 7.0 mi SE 15.0 mph - N/A   Mostly Cloudy
11:13 AM 70.9 °F 65.3 °F 82% 29.90 in 7.0 mi SSE 15.0 mph - N/A   Mostly Cloudy
11:33 AM 70.7 °F 65.5 °F 83% 29.90 in 10.0 mi SSE 12.7 mph - N/A   Overcast
11:52 AM 72.5 °F 66.4 °F 81% 29.90 in 7.0 mi SSE 15.0 mph - N/A   Mostly Cloudy
12:13 PM 73.0 °F 66.4 °F 80% 29.90 in 10.0 mi SSE 15.0 mph - N/A   Mostly Cloudy
12:33 PM 73.4 °F 66.0 °F 78% 29.90 in 10.0 mi SSE 15.0 mph 18.4 mph N/A   Overcast
12:53 PM 73.8 °F 65.8 °F 76% 29.89 in 10.0 mi SSE 11.5 mph 18.4 mph N/A   Overcast
1:14 PM 75.2 °F 63.7 °F 67% 29.89 in 10.0 mi South 13.8 mph - N/A   Mostly Cloudy
1:34 PM 75.6 °F 62.8 °F 64% 29.89 in 10.0 mi South 11.5 mph 18.4 mph N/A   Mostly Cloudy
2:13 PM 77.4 °F 63.3 °F 62% 29.88 in 10.0 mi SSE 17.3 mph 21.9 mph N/A   Mostly Cloudy
2:33 PM 77.2 °F 63.3 °F 62% 29.88 in 10.0 mi SSE 15.0 mph 20.7 mph N/A Thunderstorm Scattered Clouds
2:53 PM 76.8 °F 62.2 °F 61% 29.87 in 10.0 mi South 13.8 mph - N/A Thunderstorm Scattered Clouds
3:14 PM 76.8 °F 60.6 °F 57% 29.87 in 10.0 mi South 12.7 mph 18.4 mph N/A   Mostly Cloudy
3:33 PM 77.4 °F 60.6 °F 56% 29.86 in 10.0 mi South 11.5 mph 21.9 mph N/A   Mostly Cloudy
3:53 PM 78.8 °F 59.5 °F 52% 29.86 in 10.0 mi South 16.1 mph - N/A   Scattered Clouds
4:13 PM 79.5 °F 57.7 °F 47% 29.86 in 10.0 mi South 13.8 mph - N/A   Clear
4:33 PM 79.2 °F 58.6 °F 49% 29.86 in 10.0 mi South 11.5 mph - N/A   Clear
4:53 PM 79.3 °F 59.2 °F 50% 29.86 in 10.0 mi SE 10.4 mph - N/A   Mostly Cloudy
5:13 PM 79.3 °F 59.2 °F 50% 29.86 in 10.0 mi SSE 11.5 mph - N/A Thunderstorm Mostly Cloudy
5:32 PM 79.7 °F 58.6 °F 48% 29.87 in 10.0 mi SSE 9.2 mph 16.1 mph N/A   Scattered Clouds
5:53 PM 75.6 °F 61.7 °F 62% 29.87 in 10.0 mi East 11.5 mph - N/A   Scattered Clouds
6:13 PM 73.0 °F 62.6 °F 70% 29.86 in 10.0 mi East 17.3 mph - N/A   Scattered Clouds
6:34 PM 73.2 °F 61.9 °F 68% 29.86 in 10.0 mi East 15.0 mph - N/A   Clear
6:53 PM 73.9 °F 61.9 °F 66% 29.86 in 10.0 mi ESE 18.4 mph 25.3 mph N/A   Clear
7:13 PM 72.0 °F 59.5 °F 65% 29.86 in 10.0 mi ESE 18.4 mph - N/A   Clear
7:33 PM 71.8 °F 61.3 °F 70% 29.85 in 10.0 mi ESE 17.3 mph - N/A   Clear
7:53 PM 70.9 °F 62.6 °F 75% 29.85 in 10.0 mi ESE 17.3 mph - N/A   Clear
8:13 PM 69.8 °F 62.4 °F 77% 29.86 in 10.0 mi SE 15.0 mph - N/A   Clear
8:34 PM 69.3 °F 64.4 °F 84% 29.86 in 7.0 mi ESE 15.0 mph - N/A   Clear
8:54 PM 68.5 °F 64.2 °F 86% 29.87 in 7.0 mi SE 11.5 mph - N/A   Clear
9:14 PM 68.0 °F 62.6 °F 83% 29.88 in 10.0 mi ESE 10.4 mph - N/A   Clear
9:33 PM 67.3 °F 61.7 °F 82% 29.88 in 10.0 mi ESE 10.4 mph - N/A   Clear
9:53 PM 66.6 °F 62.2 °F 86% 29.89 in 10.0 mi ESE 9.2 mph - N/A   Clear
10:13 PM 66.4 °F 62.1 °F 86% 29.89 in 10.0 mi ESE 8.1 mph - N/A   Clear
10:33 PM 66.0 °F 61.5 °F 85% 29.90 in 10.0 mi ESE 10.4 mph - N/A   Clear
10:53 PM 65.3 °F 60.4 °F 84% 29.89 in 10.0 mi ESE 11.5 mph - N/A   Clear
11:12 PM 64.8 °F 60.4 °F 86% 29.89 in 10.0 mi ESE 12.7 mph - N/A   Clear
11:34 PM 64.4 °F 60.8 °F 88% 29.88 in 10.0 mi SE 15.0 mph - N/A   Clear
11:53 PM 63.9 °F 61.0 °F 90% 29.88 in 10.0 mi SE 11.5 mph - N/A   Clear